Regional Weather Roundup
Issued by NWS

Home | Current Version | Previous Version | Graphics & Text | Print | Product List | Glossary Off
Versions: 1 2 3 4 5 6 7 8 9 10 11 12 13 14 15 16 17 18 19 20 21 22 23 24 25 26 27 28 29 30 31 32 33 34 35 36 37 38 39 40 41 42 43 44 45 46 47 48 49 50

000
ASUS43 KFSD 211502
RWRSD

WEATHER ROUNDUP FOR SOUTH DAKOTA
NATIONAL WEATHER SERVICE SIOUX FALLS SD
900 AM CST SAT JAN 21 2017

NOTE: "FAIR" INDICATES FEW OR NO CLOUDS BELOW 12,000 FEET WITH NO
SIGNIFICANT WEATHER AND/OR OBSTRUCTIONS TO VISIBILITY.


SDZ001>005-009-010-012>017-211600-
NORTHWEST AND NORTH CENTRAL SOUTH DAKOTA

CITY           SKY/WX    TMP DP  RH WIND       PRES   REMARKS
BUFFALO          N/A     25  23  92 W8        29.28R WCI  16
FAITH            N/A     29  28  96 W12       29.33R WCI  19
MOBRIDGE       CLOUDY    27  23  85 W6        29.31S FOG     WCI  20
$$

SDZ012>016-024>037-041>051-057-063-072>074-211600-
SOUTHWEST AND SOUTH CENTRAL SOUTH DAKOTA

CITY           SKY/WX    TMP DP  RH WIND       PRES   REMARKS
RAPID CTY ARPT CLEAR     30  26  85 W9        29.36R WCI  22
PIERRE         CLOUDY    26  25  96 NW8       29.35R FOG     WCI  18
CUSTER         CLEAR     24  21  88 CALM      29.33R
ELLSWORTH AFB  CLEAR     27  27 100 NW8       29.35R WCI  18
PHILIP         CLOUDY    35  32  88 W13       29.36R WCI  26
PINE RIDGE     CLOUDY    29  28  96 SW9       29.38R WCI  20
SPEARFISH      FAIR      28  25  86 W7        29.36R WCI  21
WINNER         PTSUNNY   28  26  92 CALM      29.36R
$$

SDZ004>011-016>023-039-040-211600-
NORTHEAST SOUTH DAKOTA

CITY           SKY/WX    TMP DP  RH WIND       PRES   REMARKS
ABERDEEN       CLOUDY    29  26  89 CALM      29.35S
WATERTOWN      CLOUDY    34  34 100 SE6       29.33R FOG     WCI  29
BROOKINGS      LGT RAIN  34  33  96 SE6       29.33S VSB 1/4 WCI  29
SISSETON         N/A     33  33 100 S6        29.37R WCI  28
$$

SDZ017-020-022-023-036>040-048>070-211600-
SOUTHEAST SOUTH DAKOTA

CITY           SKY/WX    TMP DP  RH WIND       PRES   REMARKS
SIOUX FALLS    DRZL/FOG  36  36 100 SW3       29.35S VSB 1/4
HURON          CLOUDY    27  26  96 W5        29.36R WCI  22
CHAMBERLAIN    CLOUDY    29  29 100 W6        29.37R WCI  23
MITCHELL       CLOUDY    29  27  92 W10       29.37S WCI  20
YANKTON        MOCLDY    34  28  80 NW14      29.37R WCI  24
$$

ABBREVIATIONS USED IN REMARKS
   TC - TEMPERATURE IN CELSIUS
  WCI - WIND CHILL INDEX
   HX - HEAT INDEX
  VSB - VISIBILITY




USA.gov is the U.S. government's official web portal to all federal, state and local government web resources and services.